GLO2539 SBCF-SBRF

Flight info

Callsign GLO2539
Flight time N/A
Altitude 37000
Route ILPIR UZ23 ANBEX
Aircraft B738/M-SDE2E3FGHIRWXY/LB1

Departure

Time 2026-05-08 22:04
Airport Tancredo Neves International Airport (SBCF)

Arrival

Time N/A
Airport Recife/Guararapes - Gilberto Freyre International Airport (SBRF)
Time Latitude Longitude Altitude Speed Heading
2026-05-08 21:52 -19.63074 -43.96586 2807 ft 1 kts 49°
2026-05-08 21:52 -19.63075 -43.96587 2807 ft 2 kts 49°
2026-05-08 21:52 -19.63087 -43.96602 2803 ft 3 kts 46°
2026-05-08 21:52 -19.63102 -43.96618 2802 ft 4 kts 42°
2026-05-08 21:53 -19.63121 -43.96634 2808 ft 3 kts 33°
2026-05-08 21:53 -19.63141 -43.96645 2808 ft 3 kts
2026-05-08 21:53 -19.63159 -43.96643 2807 ft 1 kts 320°
2026-05-08 21:53 -19.63159 -43.96642 2807 ft 0 kts 319°
2026-05-08 21:56 -19.63154 -43.96647 2808 ft 2 kts 321°
2026-05-08 21:56 -19.63134 -43.96664 2785 ft 5 kts 316°
2026-05-08 21:56 -19.63099 -43.96698 2752 ft 8 kts 320°
2026-05-08 21:56 -19.63049 -43.96743 2752 ft 11 kts 320°
2026-05-08 21:57 -19.62988 -43.96801 2752 ft 13 kts 319°
2026-05-08 21:57 -19.62918 -43.96863 2752 ft 13 kts 321°
2026-05-08 21:57 -19.62849 -43.96925 2752 ft 13 kts 319°
2026-05-08 21:57 -19.62791 -43.96992 2752 ft 12 kts 288°
2026-05-08 21:58 -19.62815 -43.97075 2752 ft 12 kts 230°
2026-05-08 21:58 -19.62819 -43.97154 2752 ft 12 kts 305°
2026-05-08 21:58 -19.62760 -43.97213 2752 ft 12 kts 322°
2026-05-08 21:58 -19.62701 -43.97268 2752 ft 11 kts 314°
2026-05-08 21:59 -19.62643 -43.97324 2752 ft 11 kts 319°
2026-05-08 21:59 -19.62586 -43.97376 2752 ft 11 kts 317°
2026-05-08 21:59 -19.62531 -43.97429 2751 ft 10 kts 320°
2026-05-08 21:59 -19.62476 -43.97478 2752 ft 10 kts 319°
2026-05-08 22:00 -19.62423 -43.97526 2752 ft 10 kts 319°
2026-05-08 22:00 -19.62372 -43.97573 2752 ft 10 kts 319°
2026-05-08 22:00 -19.62322 -43.97620 2752 ft 9 kts 319°
2026-05-08 22:00 -19.62273 -43.97665 2752 ft 8 kts 318°
2026-05-08 22:01 -19.62255 -43.97683 2752 ft 3 kts 314°
2026-05-08 22:01 -19.62242 -43.97704 2752 ft 3 kts 300°
2026-05-08 22:01 -19.62240 -43.97729 2752 ft 3 kts 261°
2026-05-08 22:01 -19.62252 -43.97751 2753 ft 4 kts 232°
2026-05-08 22:02 -19.62270 -43.97769 2752 ft 4 kts 215°
2026-05-08 22:02 -19.62296 -43.97780 2752 ft 4 kts 196°
2026-05-08 22:02 -19.62331 -43.97788 2751 ft 6 kts 191°
2026-05-08 22:02 -19.62376 -43.97787 2752 ft 7 kts 162°
2026-05-08 22:03 -19.62395 -43.97774 2750 ft 0 kts 140°
2026-05-08 22:03 -19.62396 -43.97773 2750 ft 1 kts 140°
2026-05-08 22:03 -19.62526 -43.97655 2750 ft 59 kts 139°
2026-05-08 22:03 -19.63010 -43.97200 2753 ft 125 kts 139°
2026-05-08 22:04 -19.63799 -43.96478 2772 ft 176 kts 139°
2026-05-08 22:04 -19.64792 -43.95578 3303 ft 194 kts 138°
2026-05-08 22:04 -19.65838 -43.94604 4022 ft 206 kts 137°
2026-05-08 22:04 -19.66945 -43.93613 4735 ft 213 kts 137°
2026-05-08 22:05 -19.67875 -43.92322 4912 ft 232 kts 103°
2026-05-08 22:05 -19.67828 -43.90573 5156 ft 253 kts 71°
2026-05-08 22:05 -19.67210 -43.88756 5669 ft 268 kts 68°
2026-05-08 22:05 -19.66559 -43.86879 6459 ft 273 kts 69°
2026-05-08 22:06 -19.65916 -43.84971 7253 ft 276 kts 69°
2026-05-08 22:06 -19.65283 -43.83036 8097 ft 278 kts 69°
2026-05-08 22:06 -19.64654 -43.81076 8671 ft 282 kts 69°
2026-05-08 22:06 -19.64030 -43.79102 9058 ft 284 kts 69°
2026-05-08 22:07 -19.63419 -43.77152 9094 ft 281 kts 69°
2026-05-08 22:07 -19.62800 -43.75176 9119 ft 285 kts 69°
2026-05-08 22:07 -19.62170 -43.73175 9125 ft 286 kts 68°
2026-05-08 22:07 -19.61203 -43.71341 9444 ft 285 kts 49°
2026-05-08 22:08 -19.59920 -43.69711 9837 ft 290 kts 48°
2026-05-08 22:08 -19.58632 -43.68080 10385 ft 291 kts 49°
2026-05-08 22:08 -19.57277 -43.66360 10556 ft 316 kts 49°
2026-05-08 22:08 -19.55820 -43.64499 10764 ft 337 kts 49°
2026-05-08 22:09 -19.54304 -43.62551 11268 ft 346 kts 49°
2026-05-08 22:09 -19.52770 -43.60576 11960 ft 348 kts 49°
2026-05-08 22:09 -19.51176 -43.58631 12669 ft 349 kts 42°
2026-05-08 22:09 -19.49212 -43.57107 13359 ft 351 kts 32°
2026-05-08 22:10 -19.47144 -43.55708 14007 ft 354 kts 32°
2026-05-08 22:10 -19.45044 -43.54297 14514 ft 360 kts 32°